Location: Newark
(43.5831°N, 21.3381°E)
Time: 06:38:36
(UTC+00:00)

Envisat - Pass Details

Date: 13 December 2019
Orbit: 764 x 766 km, 98.1° (Epoch: 27 January)

Event Time Altitude Azimuth Distance (km) Brightness Sun altitude
Rises 15:44:21 0° 143° (SE) 3,221 6.1 -8.2°
Reaches altitude 10° 15:46:46 10° 135° (SE) 2,299 5.3 -8.6°
Maximum altitude 15:51:25 38° 69° (ENE) 1,161 3.5 -9.4°
Drops below altitude 10° 15:56:06 10° 2° (N) 2,314 5.2 -10.2°
Sets 15:58:32 0° 355° (N) 3,245 6.1 -10.6°
